Simultaneous Nadir Overpasses (SNOs) Predictions

Prediction of SNOs between GOES-16 and LANDSAT-8 Satellite Orbit:

Table of predicted SNOs for the next 14.0 days since TLE Epoch: 3/7/2025
Index Date Time (GOES-16) GOES-16 Lat,Lon LANDSAT-8 Lat,Lon Distance(km) Time Diff (sec)
1 03/09/2025 03:09:27 -0.05, -75.24 0.05, -74.67 63.79 80
2 03/11/2025 02:57:15 -0.04, -75.27 0.68, -71.72 402.89 80
3 03/11/2025 15:18:31 0.05, -75.30 0.37, -76.88 179.78 80
4 03/13/2025 15:08:59 0.05, -75.34 -0.28, -73.93 160.86 80
5 03/14/2025 03:30:22 -0.05, -75.33 -0.88, -79.11 430.56 80
6 03/16/2025 03:18:10 -0.05, -75.37 -0.20, -76.16 88.99 80
7 03/18/2025 03:03:17 -0.04, -75.42 0.44, -73.20 253.10 80
8 03/18/2025 15:24:32 0.05, -75.46 0.66, -78.36 329.51 80
9 03/20/2025 15:14:59 0.04, -75.51 -0.00, -75.40 13.15 80
